EW9135 Weather Reports


time (UTC)temp
C
wind
direction
speed
KPH
gust
KPH
rain 1hr
cm
rain 24hr
cm
rain mn
cm
humidity
%
barometer
mb
20260508075633 13 249 0.0 0.0 0.00 0.00 0.00 41 1023.5
20260508075127 13 274 0.0 0.0 0.00 0.00 0.00 41 1023.5
20260508074621 13 250 0.0 0.0 0.00 0.00 0.00 42 1023.5
20260508074118 13 250 0.0 0.0 0.00 0.00 0.00 42 1023.5
20260508073612 13 248 0.0 0.0 0.00 0.00 0.00 42 1023.1
20260508073107 13 287 0.0 0.0 0.00 0.00 0.00 42 1023.5
20260508072603 13 288 0.0 0.0 0.00 0.00 0.00 43 1023.5
20260508072056 14 277 0.0 0.0 0.00 0.00 0.00 42 1023.5
20260508071552 14 269 0.0 0.0 0.00 0.00 0.00 43 1023.5
20260508071048 14 250 0.0 0.0 0.00 0.00 0.00 43 1023.5
20260508070542 14 269 0.0 0.0 0.00 0.00 0.00 42 1023.1
20260508070037 14 296 0.0 0.0 0.00 0.00 0.00 42 1023.1
20260508065533 14 265 0.0 0.0 0.00 0.00 0.00 42 1023.5
20260508065029 15 7 0.0 0.0 0.00 0.00 0.00 42 1023.5
20260508064522 15 278 0.0 0.0 0.00 0.00 0.00 42 1023.1
20260508064018 15 277 0.0 0.0 0.00 0.00 0.00 42 1023.5
20260508063512 15 100 0.0 0.0 0.00 0.00 0.00 41 1023.1
20260508063007 15 27 0.0 0.0 0.00 0.00 0.00 41 1023.5
20260508062502 15 271 0.0 0.0 0.00 0.00 0.00 40 1023.1
20260508061956 15 270 0.0 0.0 0.00 0.00 0.00 40 1023.1
20260508061452 15 258 0.0 0.0 0.00 0.00 0.00 41 1023.1
20260508060950 15 281 0.0 0.0 0.00 0.00 0.00 42 1023.1
20260508060944 15 257 0.0 0.0 0.00 0.00 0.00 40 1023.5
20260508055937 15 270 0.0 0.0 0.00 0.00 0.00 40 1023.1
20260508055436 15 270 0.0 0.0 0.00 0.00 0.00 39 1023.1
20260508055429 15 277 0.0 0.0 0.00 0.00 0.00 39 1023.1
20260508055044 15 286 0.0 0.0 0.00 0.00 0.00 38 1023.1
20260508054422 15 325 0.0 0.0 0.00 0.00 0.00 40 1023.1
20260508054413 15 253 0.0 0.0 0.00 0.00 0.00 38 1023.1
20260508052908 16 232 0.0 0.0 0.00 0.00 0.00 38 1023.1
20260508052403 16 241 0.0 0.0 0.00 0.00 0.00 37 1023.1
20260508051900 16 252 0.0 0.0 0.00 0.00 0.00 37 1023.1
20260508051853 16 246 0.0 0.0 0.00 0.00 0.00 38 1023.1
20260508050848 16 220 0.0 0.0 0.00 0.00 0.00 36 1023.1
20260508050342 16 276 0.0 0.0 0.00 0.00 0.00 36 1023.1
20260508045839 16 41 0.0 0.0 0.00 0.00 0.00 36 1023.1
20260508045833 16 219 0.0 0.0 0.00 0.00 0.00 36 1023.1
20260508044826 16 272 0.0 0.0 0.00 0.00 0.00 37 1023.1
20260508044321 17 274 0.0 0.0 0.00 0.00 0.00 37 1023.1
20260508043817 17 19 0.0 0.0 0.00 0.00 0.00 37 1023.1
20260508043311 17 241 0.0 0.0 0.00 0.00 0.00 35 1023.1
20260508042807 17 233 0.0 0.0 0.00 0.00 0.00 32 1023.1
20260508042306 17 259 0.0 0.0 0.00 0.00 0.00 31 1023.1
20260508041757 17 348 0.0 0.0 0.00 0.00 0.00 30 1022.8
20260508041251 17 28 0.0 0.0 0.00 0.00 0.00 30 1022.8